Total_Precipitation_Accumulation
0.00 0.01 0.01 0.00 0.00 0.00 0.00 0.00 0.01 0.02 0.02 0.08 0.08 0.07 0.03 0.01 0.01 0.02 0.02 0.03 0.04 0.05 0.08 0.14 0.16 0.18 0.24 0.24 0.21 0.20 0.15 0.12 0.10 0.03 0.01 0.00 0.01 0.01 0.00 0.01 0.00 0.00 0.00
0.00 0.01 0.01 0.01 0.00 0.00 0.00 0.00 0.02 0.02 0.01 0.02 0.13 0.12 0.06 0.04 0.03 0.02 0.03 0.04 0.04 0.06 0.06 0.05 0.06 0.14 0.25 0.25 0.32 0.36 0.35 0.31 0.32 0.24 0.13 0.09 0.06 0.04 0.04 0.05 0.05 0.03 0.02
0.13 0.07 0.02 0.00 0.00 0.00 0.00 0.00 0.01 0.03 0.04 0.03 0.13 0.27 0.08 0.07 0.05 0.04 0.02 0.02 0.02 0.04 0.04 0.03 0.04 0.10 0.19 0.20 0.21 0.22 0.24 0.28 0.38 0.44 0.34 0.27 0.19 0.13 0.12 0.12 0.09 0.08 0.04
0.23 0.16 0.10 0.03 0.01 0.00 0.00 0.00 0.00 0.00 0.01 0.01 0.01 0.01 0.02 0.02 0.02 0.01 0.01 0.01 0.01 0.02 0.02 0.01 0.01 0.07 0.14 0.16 0.19 0.20 0.21 0.27 0.32 0.36 0.29 0.26 0.16 0.08 0.11 0.13 0.09 0.10 0.10
0.64 0.37 0.19 0.04 0.01 0.01 0.01 0.04 0.03 0.02 0.01 0.05 0.06 0.05 0.06 0.08 0.10 0.06 0.03 0.03 0.02 0.02 0.02 0.03 0.04 0.08 0.10 0.12 0.15 0.15 0.18 0.25 0.28 0.29 0.25 0.23 0.15 0.07 0.09 0.15 0.20 0.17 0.10
1.10 0.83 0.61 0.31 0.06 0.00 0.01 0.04 0.09 0.10 0.11 0.17 0.11 0.10 0.08 0.07 0.10 0.11 0.07 0.06 0.05 0.05 0.07 0.14 0.15 0.16 0.19 0.20 0.17 0.14 0.16 0.21 0.22 0.20 0.16 0.14 0.08 0.06 0.10 0.15 0.21 0.19 0.12
1.00 1.09 0.80 0.41 0.20 0.08 0.04 0.04 0.14 0.16 0.23 0.41 0.31 0.28 0.31 0.18 0.11 0.06 0.11 0.18 0.35 0.38 0.34 0.33 0.44 0.44 0.47 0.53 0.57 0.60 0.54 0.43 0.33 0.30 0.29 0.21 0.16 0.12 0.19 0.27 0.26 0.20 0.14
0.49 0.73 0.79 0.94 0.94 0.87 0.46 0.37 0.45 0.48 0.64 0.75 0.97 0.92 0.69 0.65 0.57 0.36 0.28 0.34 0.36 0.47 0.53 0.51 0.56 0.64 0.60 0.51 0.48 0.58 0.59 0.58 0.60 0.59 0.59 0.43 0.39 0.39 0.43 0.34 0.30 0.32 0.33
0.01 0.12 0.31 0.47 0.72 0.97 1.02 1.21 1.19 1.31 1.42 1.39 1.33 1.35 1.00 0.95 0.86 0.77 0.75 0.75 0.75 0.68 0.61 0.52 0.54 0.54 0.52 0.47 0.46 0.59 0.67 0.64 0.65 0.68 0.66 0.61 0.62 0.66 0.68 0.63 0.63 0.59 0.46
0.00 0.00 0.01 0.10 0.19 0.23 0.38 0.51 0.56 0.55 0.52 0.63 0.72 0.81 0.76 0.66 0.58 0.54 0.47 0.60 0.56 0.44 0.48 0.32 0.44 0.25 0.24 0.24 0.19 0.19 0.25 0.28 0.25 0.21 0.22 0.22 0.19 0.22 0.44 0.45 0.41 0.40 0.29
0.00 0.00 0.00 0.00 0.00 0.01 0.02 0.04 0.07 0.16 0.23 0.20 0.20 0.17 0.20 0.17 0.16 0.25 0.27 0.32 0.31 0.25 0.24 0.21 0.20 0.28 0.18 0.17 0.14 0.08 0.08 0.07 0.09 0.05 0.02 0.01 0.02 0.04 0.07 0.15 0.25 0.42 0.39
0.00 0.00 0.00 0.00 0.00 0.00 0.00 0.00 0.00 0.00 0.00 0.00 0.02 0.02 0.02 0.06 0.08 0.08 0.08 0.10 0.11 0.08 0.11 0.11 0.10 0.15 0.07 0.06 0.06 0.07 0.10 0.10 0.04 0.03 0.04 0.04 0.05 0.08 0.09 0.16 0.27 0.41 0.52
0.00 0.00 0.00 0.00 0.00 0.00 0.00 0.00 0.00 0.00 0.00 0.00 0.00 0.00 0.00 0.00 0.00 0.01 0.02 0.01 0.01 0.00 0.01 0.01 0.02 0.02 0.00 0.00 0.00 0.01 0.02 0.02 0.02 0.05 0.07 0.07 0.08 0.10 0.13 0.21 0.26 0.25 0.29
0.00 0.00 0.00 0.00 0.00 0.00 0.00 0.00 0.00 0.00 0.00 0.00 0.00 0.00 0.00 0.00 0.00 0.00 0.00 0.00 0.00 0.00 0.00 0.00 0.00 0.00 0.00 0.00 0.00 0.00 0.00 0.00 0.02 0.04 0.06 0.10 0.12 0.16 0.23 0.25 0.24 0.21 0.23
0.00 0.00 0.00 0.00 0.00 0.00 0.00 0.00 0.00 0.00 0.00 0.00 0.00 0.00 0.00 0.00 0.00 0.00 0.00 0.00 0.00 0.00 0.00 0.00 0.00 0.00 0.00 0.00 0.00 0.00 0.00 0.00 0.02 0.03 0.06 0.09 0.11 0.16 0.25 0.29 0.31 0.32 0.35
0.00 0.00 0.00 0.00 0.00 0.00 0.00 0.00 0.00 0.00 0.00 0.00 0.00 0.00 0.00 0.00 0.00 0.00 0.00 0.00 0.00 0.00 0.00 0.00 0.00 0.00 0.00 0.00 0.00 0.00 0.00 0.00 0.00 0.01 0.03 0.06 0.09 0.15 0.22 0.24 0.28 0.34 0.40
0.00 0.00 0.00 0.00 0.00 0.00 0.00 0.00 0.00 0.00 0.00 0.00 0.00 0.00 0.00 0.00 0.00 0.00 0.00 0.00 0.00 0.00 0.00 0.00 0.00 0.00 0.00 0.00 0.00 0.00 0.00 0.00 0.01 0.01 0.02 0.03 0.06 0.11 0.22 0.29 0.36 0.43 0.46
0.00 0.00 0.00 0.00 0.00 0.00 0.00 0.00 0.00 0.00 0.00 0.00 0.00 0.00 0.00 0.00 0.00 0.00 0.00 0.00 0.00 0.00 0.00 0.00 0.00 0.00 0.00 0.00 0.00 0.00 0.01 0.00 0.01 0.01 0.01 0.02 0.05 0.10 0.16 0.19 0.25 0.37 0.50
0.00 0.00 0.00 0.00 0.00 0.00 0.00 0.00 0.00 0.00 0.00 0.00 0.00 0.00 0.00 0.00 0.00 0.00 0.00 0.00 0.00 0.00 0.00 0.00 0.00 0.01 0.01 0.01 0.01 0.00 0.01 0.01 0.01 0.01 0.01 0.03 0.03 0.08 0.16 0.20 0.25 0.30 0.39
0.00 0.00 0.00 0.00 0.00 0.00 0.00 0.00 0.00 0.00 0.00 0.00 0.00 0.00 0.00 0.00 0.00 0.00 0.00 0.00 0.00 0.00 0.00 0.01 0.00 0.01 0.01 0.01 0.01 0.01 0.02 0.02 0.01 0.01 0.02 0.04 0.05 0.08 0.13 0.18 0.25 0.35 0.37
0.00 0.00 0.00 0.00 0.00 0.00 0.00 0.00 0.00 0.00 0.00 0.00 0.00 0.00 0.00 0.00 0.00 0.00 0.00 0.00 0.00 0.00 0.01 0.01 0.01 0.01 0.01 0.01 0.01 0.02 0.02 0.02 0.01 0.02 0.03 0.04 0.06 0.10 0.10 0.17 0.25 0.29 0.37
0.00 0.00 0.00 0.00 0.00 0.00 0.00 0.00 0.00 0.00 0.00 0.00 0.00 0.00 0.00 0.00 0.00 0.00 0.00 0.00 0.00 0.00 0.00 0.01 0.01 0.01 0.01 0.03 0.04 0.04 0.03 0.03 0.03 0.04 0.05 0.05 0.07 0.11 0.13 0.16 0.21 0.31 0.38
0.00 0.00 0.00 0.00 0.00 0.00 0.00 0.00 0.00 0.00 0.00 0.00 0.00 0.00 0.00 0.00 0.00 0.00 0.00 0.00 0.00 0.00 0.00 0.01 0.01 0.01 0.01 0.02 0.04 0.08 0.12 0.11 0.10 0.11 0.14 0.09 0.07 0.11 0.17 0.19 0.18 0.26 0.35
0.00 0.00 0.00 0.00 0.00 0.00 0.00 0.00 0.00 0.00 0.00 0.00 0.00 0.00 0.00 0.00 0.00 0.00 0.00 0.00 0.00 0.00 0.00 0.00 0.01 0.01 0.01 0.01 0.02 0.05 0.10 0.11 0.10 0.11 0.15 0.15 0.12 0.12 0.16 0.24 0.26 0.27 0.28
0.00 0.00 0.00 0.00 0.00 0.00 0.00 0.00 0.00 0.00 0.00 0.00 0.00 0.00 0.00 0.00 0.00 0.00 0.00 0.00 0.00 0.00 0.00 0.00 0.00 0.01 0.01 0.01 0.01 0.03 0.05 0.04 0.07 0.10 0.11 0.12 0.16 0.16 0.17 0.22 0.29 0.28 0.32
0.00 0.00 0.00 0.00 0.00 0.00 0.00 0.00 0.00 0.00 0.00 0.00 0.00 0.00 0.00 0.00 0.00 0.00 0.00 0.00 0.00 0.00 0.00 0.00 0.00 0.00 0.00 0.01 0.02 0.03 0.03 0.01 0.03 0.07 0.10 0.14 0.18 0.23 0.25 0.27 0.31 0.30 0.32